Tracking 30995 objects as of 7-Jul-2025
HD Live streaming from Space Station
objects crossing your sky now

ONEWEB-0061

Track ONEWEB-0061 now!
10-day predictions
ONEWEB-0061 is classified as:


NORAD ID: 45428
Int'l Code: 2020-020E
Perigee: 1,223.3 km
Apogee: 1,226.3 km
Inclination: 87.9 °
Period: 109.8 minutes
Semi major axis: 7595 km
RCS: Unknown
Launch date: March 21, 2020
Source: United Kingdom (UK)
Launch site: TYURATAM MISSILE AND SPACE COMPLEX (TTMTR)
Your satellite tracking list
Your tracking list is empty




NASA's NSSDC Master Catalog

Two Line Element Set (TLE):
1 45428U 20020E   25187.23904158  .00000122  00000-0  30776-3 0  9993
2 45428  87.8839  90.0006 0001941  78.2735 281.8610 13.11419013257284
Source of the keplerian elements: AFSPC